Weather History for Iron Mountain, MI

Change the Weather History Date:

Thursday, May 23, 2013

  Actual Average Record
Temperature  
Mean Temperature 44 °F -  
Max Temperature 53 °F 68 °F 87 °F (1980)
Min Temperature 33 °F 44 °F 21 °F (1963)
Degree Days  
Heating Degree Days 22    
Moisture  
Dew Point 31 °F    
Average Humidity 67    
Maximum Humidity 89    
Minimum Humidity 40    
Precipitation  
Precipitation 0.00 in - - ()
Sea Level Pressure  
Sea Level Pressure 30.17 in    
Wind  
Wind Speed 16 mph (North)    
Max Wind Speed 22 mph    
Max Gust Speed 31 mph    
Visibility 10 miles    
Events Rain    
Averages and records for this station are not official NWS values.
T = Trace of Precipitation, MM = Missing Value Source: NWS Daily Summary

Daily Weather History Graph

Daily Weather History Graph

Search for Another Location

Airport:

Trip Planner

Search our weather history database for the weather conditions in past years. The results will help you decide how hot, cold, wet, or windy it might be!

Date:

Astronomy

May. 23, 2013 Rise Set
Actual Time 5:12 AM CDT 8:26 PM CDT
Civil Twilight 4:36 AM CDT 9:02 PM CDT
Nautical Twilight 3:49 AM CDT 9:50 PM CDT
Astronomical Twilight 2:51 AM CDT 10:48 PM CDT
Moon 6:55 PM CDT (5/23) 4:02 AM CDT (5/23)
Length of Visible Light 16h 26m
Length of Day
15h 14m
Waxing Gibbous, 97% of the Moon is Illuminated
May 23
Waxing Gibbous
May 24
Full
May 31
Last Quarter
Jun 8
New
Jun 16
First Quarter

Hourly Weather History & Observations

Time (CDT) Temp. Windchill Dew Point Humidity Pressure Visibility Wind Dir Wind Speed Gust Speed Precip Events Conditions
12:40 AM 42.8 °F 34.8 °F 39.2 °F 87% 29.94 in 10.0 mi North 17.3 mph - 0.00 in Rain Light Rain
12:54 AM 42.1 °F 34.9 °F 39.0 °F 89% 29.96 in 10.0 mi North 13.8 mph 24.2 mph 0.00 in Rain Light Rain
1:54 AM 41.0 °F 32.5 °F 37.9 °F 89% 29.97 in 10.0 mi North 17.3 mph 25.3 mph 0.00 in   Overcast
2:54 AM 41.0 °F 33.5 °F 37.0 °F 86% 29.99 in 10.0 mi North 13.8 mph - N/A   Overcast
3:54 AM 39.9 °F 31.1 °F 36.0 °F 86% 30.01 in 10.0 mi North 17.3 mph 25.3 mph N/A   Overcast
4:46 AM 39.2 °F 29.3 °F 35.6 °F 87% 30.01 in 10.0 mi North 20.7 mph 26.5 mph N/A   Overcast
4:54 AM 39.0 °F 30.6 °F 34.0 °F 82% 30.04 in 10.0 mi North 15.0 mph 26.5 mph N/A   Overcast
5:44 AM 37.4 °F 28.2 °F 32.0 °F 81% 30.04 in 10.0 mi North 16.1 mph 28.8 mph N/A   Scattered Clouds
5:54 AM 37.9 °F 28.2 °F 32.0 °F 79% 30.08 in 10.0 mi North 18.4 mph 26.5 mph N/A   Scattered Clouds
6:04 AM 37.4 °F 27.8 °F 32.0 °F 81% 30.05 in 10.0 mi North 17.3 mph 26.5 mph N/A   Mostly Cloudy
6:54 AM 37.9 °F 28.2 °F 30.9 °F 76% 30.11 in 10.0 mi North 18.4 mph 27.6 mph N/A   Overcast
7:54 AM 37.9 °F 27.3 °F 30.9 °F 76% 30.14 in 10.0 mi North 21.9 mph 31.1 mph N/A   Overcast
8:54 AM 37.9 °F 28.5 °F 30.0 °F 73% 30.17 in 10.0 mi NNE 17.3 mph 31.1 mph N/A   Overcast
9:54 AM 39.9 °F 30.2 °F 28.9 °F 65% 30.20 in 10.0 mi NNW 20.7 mph 28.8 mph N/A   Overcast
10:54 AM 43.0 °F 34.5 °F 30.0 °F 60% 30.22 in 10.0 mi North 19.6 mph 25.3 mph N/A   Mostly Cloudy
11:06 AM 44.6 °F 36.9 °F 30.2 °F 57% 30.19 in 10.0 mi NNW 18.4 mph 24.2 mph N/A   Scattered Clouds
11:54 AM 45.0 °F 37.1 °F 28.9 °F 53% 30.23 in 10.0 mi North 19.6 mph 25.3 mph N/A   Partly Cloudy
12:54 PM 46.9 °F - 30.0 °F 52% 30.23 in 10.0 mi NNE 12.7 mph 24.2 mph N/A   Partly Cloudy
1:54 PM 50.0 °F - 30.9 °F 48% 30.23 in 10.0 mi North 17.3 mph 21.9 mph N/A   Clear
2:54 PM 51.1 °F - 28.9 °F 43% 30.23 in 10.0 mi NNE 18.4 mph 24.2 mph N/A   Clear
3:54 PM 52.0 °F - 28.0 °F 40% 30.24 in 10.0 mi NNE 16.1 mph 23.0 mph N/A   Clear
4:54 PM 51.1 °F - 28.0 °F 41% 30.26 in 10.0 mi North 17.3 mph 23.0 mph N/A   Clear
5:54 PM 51.1 °F - 28.0 °F 41% 30.28 in 10.0 mi NNW 19.6 mph 25.3 mph N/A   Clear
6:54 PM 50.0 °F - 27.0 °F 41% 30.30 in 10.0 mi NNW 16.1 mph 20.7 mph N/A   Clear
7:54 PM 46.9 °F - 27.0 °F 46% 30.32 in 10.0 mi North 9.2 mph - N/A   Clear
8:54 PM 41.0 °F 38.0 °F 27.0 °F 57% 30.33 in 10.0 mi North 4.6 mph - N/A   Clear
9:54 PM 39.9 °F 37.8 °F 28.0 °F 63% 30.35 in 10.0 mi NNW 3.5 mph - N/A   Clear
10:54 PM 35.1 °F - 28.0 °F 76% 30.35 in 10.0 mi Calm Calm - N/A   Clear
11:54 PM 33.1 °F - 28.0 °F 82% 30.37 in 10.0 mi Calm Calm - N/A   Clear